Location: ???????
(60.4260°N, 46.9069°E)
Time: 07:58:09
(UTC+00:00)

Cosmos 1484 Rocket - Pass Details

Date: 30 March 2020
Orbit: 505 x 560 km, 97.4° (Epoch: 25 May)

Event Time Altitude Azimuth Distance (km) Brightness Sun altitude
Rises 01:33:08 0° 18° (NNE) 2,740 7.0 -6.7°
Reaches altitude 10° 01:35:23 10° 26° (NNE) 1,833 6.2 -6.4°
Maximum altitude 01:39:09 42° 98° (E) 782 4.2 -6.0°
Drops below altitude 10° 01:42:51 10° 171° (S) 1,788 5.4 -5.6°
Sets 01:45:01 0° 178° (S) 2,664 6.2 -5.3°
